• In Deutschland
  • Länderverzeichnis
  • Für 7 Tage
  • Wassertemperatur
  • Satellitenkarten
  • Wetterkarte
  • Widgets
  • user-avatar
    Anmelden

    Stündliche Wetter Bolgatanga

    Heute, 14 August, Dienstag

    Zeit Temperatur Niederschläge Wind Luftdruck Luftfeuchtigkeit
    00:00 +25°C° 0 mm 1 m/S 743 mmHg 93%
    01:00 +25°C° 0 mm 1 m/S 743 mmHg 93%
    02:00 +25°C° 0 mm 1 m/S 743 mmHg 93%
    03:00 +25°C° 0 mm 1 m/S 743 mmHg 92%
    04:00 +25°C° 0 mm 1 m/S 743 mmHg 93%
    05:00 +25°C° 0 mm 1 m/S 743 mmHg 93%
    06:00 +24°C° 0 mm 1 m/S 743 mmHg 94%
    07:00 +26°C° 0 mm 1 m/S 743 mmHg 88%
    08:00 +27°C° 0 mm 2 m/S 744 mmHg 82%
    09:00 +29°C° 0 mm 2 m/S 744 mmHg 76%
    10:00 +30°C° 0,2 mm 1 m/S 744 mmHg 68%
    11:00 +32°C° 0,2 mm 1 m/S 744 mmHg 61%
    12:00 +32°C° 0 mm 1 m/S 744 mmHg 59%
    13:00 +33°C° 0 mm 1 m/S 744 mmHg 56%
    14:00 +31°C° 0 mm 0 m/S 743 mmHg 53%
    15:00 +32°C° 0 mm 0 m/S 742 mmHg 50%
    16:00 +31°C° 0 mm 0 m/S 742 mmHg 54%
    17:00 +30°C° 0 mm 0 m/S 742 mmHg 58%
    18:00 +29°C° 0 mm 0 m/S 742 mmHg 61%
    19:00 +29°C° 0 mm 0 m/S 743 mmHg 63%
    20:00 +30°C° 0 mm 1 m/S 743 mmHg 64%
    21:00 +29°C° 0 mm 1 m/S 744 mmHg 65%
    22:00 +28°C° 0,1 mm 1 m/S 743 mmHg 69%
    23:00 +28°C° 0,1 mm 2 m/S 743 mmHg 72%

    Morgen, 15 August, Mittwoch

    Zeit Temperatur Niederschläge Wind Luftdruck Luftfeuchtigkeit
    00:00 +27°C° 0,1 mm 2 m/S 743 mmHg 76%
    01:00 +27°C° 0,2 mm 2 m/S 743 mmHg 80%
    02:00 +26°C° 0,2 mm 2 m/S 743 mmHg 83%
    03:00 +26°C° 0,2 mm 2 m/S 743 mmHg 86%
    04:00 +26°C° 0 mm 2 m/S 743 mmHg 87%
    05:00 +25°C° 0 mm 2 m/S 743 mmHg 88%
    06:00 +25°C° 0 mm 2 m/S 743 mmHg 89%
    07:00 +27°C° 0 mm 2 m/S 743 mmHg 83%
    08:00 +28°C° 0 mm 3 m/S 744 mmHg 76%
    09:00 +30°C° 0 mm 4 m/S 744 mmHg 70%
    10:00 +31°C° 0 mm 3 m/S 744 mmHg 64%
    11:00 +33°C° 0 mm 3 m/S 744 mmHg 59%
    12:00 +35°C° 0 mm 3 m/S 744 mmHg 53%
    13:00 +35°C° 0 mm 3 m/S 743 mmHg 52%
    14:00 +36°C° 0 mm 3 m/S 742 mmHg 50%
    15:00 +36°C° 0 mm 3 m/S 742 mmHg 49%
    16:00 +35°C° 0 mm 2 m/S 742 mmHg 54%
    17:00 +34°C° 0 mm 2 m/S 742 mmHg 59%
    18:00 +32°C° 0 mm 1 m/S 742 mmHg 64%
    19:00 +31°C° 0,1 mm 2 m/S 743 mmHg 66%
    20:00 +30°C° 0,1 mm 2 m/S 743 mmHg 68%
    21:00 +29°C° 0,1 mm 2 m/S 744 mmHg 70%
    22:00 +29°C° 0 mm 2 m/S 744 mmHg 73%
    23:00 +28°C° 0 mm 2 m/S 744 mmHg 75%

    übermorgen, 16 August, Donnerstag

    Zeit Temperatur Niederschläge Wind Luftdruck Luftfeuchtigkeit
    00:00 +28°C° 0 mm 2 m/S 744 mmHg 78%
    01:00 +28°C° 0,1 mm 2 m/S 744 mmHg 79%
    02:00 +27°C° 0,1 mm 2 m/S 743 mmHg 80%
    03:00 +27°C° 0,1 mm 2 m/S 743 mmHg 82%
    04:00 +27°C° 1,1 mm 2 m/S 743 mmHg 83%
    05:00 +26°C° 1,1 mm 2 m/S 744 mmHg 85%
    06:00 +26°C° 1,1 mm 3 m/S 744 mmHg 87%
    07:00 +27°C° 0,8 mm 3 m/S 745 mmHg 86%
    08:00 +27°C° 0,8 mm 4 m/S 745 mmHg 85%
    09:00 +27°C° 0,8 mm 4 m/S 746 mmHg 84%
    10:00 +28°C° 0,9 mm 4 m/S 745 mmHg 80%
    11:00 +29°C° 0,9 mm 4 m/S 745 mmHg 76%
    12:00 +30°C° 0,9 mm 4 m/S 745 mmHg 72%
    13:00 +32°C° 0,1 mm 4 m/S 744 mmHg 69%
    14:00 +32°C° 0,1 mm 4 m/S 743 mmHg 66%
    15:00 +33°C° 0,1 mm 4 m/S 742 mmHg 63%
    16:00 +31°C° 0 mm 3 m/S 742 mmHg 67%
    17:00 +30°C° 0 mm 3 m/S 742 mmHg 71%
    18:00 +30°C° 0 mm 2 m/S 742 mmHg 74%
    19:00 +29°C° 0 mm 2 m/S 743 mmHg 76%
    20:00 +29°C° 0 mm 1 m/S 743 mmHg 77%
    21:00 +28°C° 0 mm 1 m/S 744 mmHg 79%
    22:00 +28°C° 0,7 mm 1 m/S 744 mmHg 81%
    23:00 +27°C° 0,7 mm 1 m/S 744 mmHg 84%

    17 August, Freitag

    Zeit Temperatur Niederschläge Wind Luftdruck Luftfeuchtigkeit
    00:00 +27°C° 0,7 mm 1 m/S 744 mmHg 87%
    01:00 +27°C° 0,9 mm 2 m/S 744 mmHg 87%
    02:00 +26°C° 0,9 mm 2 m/S 743 mmHg 87%
    03:00 +26°C° 0,9 mm 2 m/S 743 mmHg 88%
    04:00 +26°C° 0 mm 2 m/S 743 mmHg 88%
    05:00 +26°C° 0 mm 2 m/S 743 mmHg 88%
    06:00 +25°C° 0 mm 2 m/S 744 mmHg 89%
    07:00 +27°C° 0 mm 3 m/S 744 mmHg 83%
    08:00 +28°C° 0 mm 3 m/S 745 mmHg 77%
    09:00 +30°C° 0 mm 4 m/S 745 mmHg 71%
    10:00 +32°C° 0 mm 4 m/S 745 mmHg 67%
    11:00 +33°C° 0 mm 4 m/S 744 mmHg 63%
    12:00 +34°C° 0 mm 4 m/S 744 mmHg 58%
    13:00 +34°C° 0 mm 4 m/S 743 mmHg 58%
    14:00 +34°C° 0 mm 4 m/S 742 mmHg 58%
    15:00 +34°C° 0 mm 3 m/S 742 mmHg 58%
    16:00 +33°C° 0,1 mm 3 m/S 741 mmHg 64%
    17:00 +31°C° 0,1 mm 3 m/S 741 mmHg 69%
    18:00 +30°C° 0,1 mm 2 m/S 741 mmHg 75%
    19:00 +29°C° 0 mm 2 m/S 742 mmHg 77%
    20:00 +28°C° 0 mm 2 m/S 742 mmHg 79%
    21:00 +28°C° 0 mm 2 m/S 742 mmHg 81%
    22:00 +28°C° 0 mm 3 m/S 742 mmHg 82%
    23:00 +27°C° 0 mm 3 m/S 742 mmHg 82%

    18 August, Samstag

    Zeit Temperatur Niederschläge Wind Luftdruck Luftfeuchtigkeit
    00:00 +27°C° 0 mm 3 m/S 742 mmHg 83%
    01:00 +27°C° 0,1 mm 3 m/S 741 mmHg 84%
    02:00 +26°C° 0,1 mm 2 m/S 741 mmHg 85%
    03:00 +26°C° 0,1 mm 2 m/S 741 mmHg 86%
    04:00 +26°C° 0 mm 2 m/S 742 mmHg 86%
    05:00 +26°C° 0 mm 2 m/S 742 mmHg 85%
    06:00 +26°C° 0 mm 2 m/S 743 mmHg 85%
    07:00 +26°C° 0,1 mm 3 m/S 743 mmHg 83%
    08:00 +27°C° 0,1 mm 3 m/S 743 mmHg 81%
    09:00 +28°C° 0,1 mm 4 m/S 744 mmHg 78%
    10:00 +29°C° 0 mm 4 m/S 743 mmHg 73%
    11:00 +30°C° 0 mm 4 m/S 743 mmHg 69%
    12:00 +32°C° 0 mm 4 m/S 742 mmHg 64%
    13:00 +33°C° 0 mm 4 m/S 742 mmHg 63%
    14:00 +33°C° 0 mm 4 m/S 741 mmHg 62%
    15:00 +33°C° 0 mm 4 m/S 741 mmHg 61%
    16:00 +31°C° 0,1 mm 3 m/S 741 mmHg 65%
    17:00 +31°C° 0,1 mm 3 m/S 741 mmHg 70%
    18:00 +30°C° 0,1 mm 3 m/S 741 mmHg 74%
    19:00 +29°C° 0,6 mm 2 m/S 742 mmHg 78%
    20:00 +28°C° 0,6 mm 2 m/S 742 mmHg 82%
    21:00 +27°C° 0,6 mm 2 m/S 743 mmHg 86%
    22:00 +27°C° 0,2 mm 2 m/S 743 mmHg 87%
    23:00 +27°C° 0,2 mm 2 m/S 743 mmHg 88%

    19 August, Sonntag

    Zeit Temperatur Niederschläge Wind Luftdruck Luftfeuchtigkeit
    00:00 +26°C° 0,2 mm 2 m/S 743 mmHg 89%
    01:00 +26°C° 0,1 mm 2 m/S 743 mmHg 90%
    02:00 +26°C° 0,1 mm 2 m/S 742 mmHg 91%
    03:00 +25°C° 0,1 mm 2 m/S 742 mmHg 92%
    04:00 +25°C° 0 mm 2 m/S 742 mmHg 92%
    05:00 +25°C° 0 mm 2 m/S 743 mmHg 93%
    06:00 +25°C° 0 mm 2 m/S 743 mmHg 93%
    07:00 +26°C° 0 mm 2 m/S 743 mmHg 86%
    08:00 +28°C° 0 mm 3 m/S 744 mmHg 80%
    09:00 +29°C° 0 mm 3 m/S 744 mmHg 74%
    10:00 +30°C° 0,2 mm 3 m/S 744 mmHg 70%
    11:00 +31°C° 0,2 mm 3 m/S 743 mmHg 67%
    12:00 +33°C° 0,2 mm 3 m/S 743 mmHg 63%
    13:00 +33°C° 1 mm 4 m/S 742 mmHg 64%
    14:00 +33°C° 1 mm 4 m/S 742 mmHg 64%
    15:00 +33°C° 1 mm 4 m/S 741 mmHg 64%
    16:00 +31°C° 0,8 mm 3 m/S 741 mmHg 69%
    17:00 +31°C° 0,8 mm 2 m/S 742 mmHg 73%
    18:00 +30°C° 0,8 mm 2 m/S 742 mmHg 77%
    19:00 +29°C° 2,2 mm 2 m/S 742 mmHg 79%
    20:00 +28°C° 2,2 mm 2 m/S 743 mmHg 82%
    21:00 +27°C° 2,2 mm 2 m/S 744 mmHg 85%
    22:00 +27°C° 0,3 mm 2 m/S 743 mmHg 86%
    23:00 +27°C° 0,3 mm 2 m/S 743 mmHg 87%
    Mehr zeigen